| time (UTC) | temp C | wind direction | speed KPH | gust KPH | rain 1hr cm | rain 24hr cm | rain mn cm | humidity % | barometer mb |
| 20260506204504 | 14 | 0 | 0.0 | 0.0 | 0.00 | 0.71 | 0.71 | 90 | 1010.3 |
| 20260506203006 | 14 | 0 | 0.0 | 0.0 | 0.00 | 0.71 | 0.71 | 90 | 1010.0 |
| 20260506201503 | 14 | 0 | 0.0 | 0.0 | 0.00 | 0.71 | 0.71 | 89 | 1010.0 |
| 20260506200005 | 14 | 0 | 0.0 | 0.0 | 0.00 | 0.71 | 0.71 | 89 | 1009.7 |
| 20260506194503 | 15 | 0 | 0.0 | 0.0 | 0.00 | 0.71 | 0.71 | 89 | 1009.4 |
| 20260506193005 | 15 | 0 | 0.0 | 0.0 | 0.00 | 0.71 | 0.71 | 88 | 1009.3 |
| 20260506191503 | 15 | 0 | 0.0 | 0.0 | 0.00 | 0.71 | 0.71 | 87 | 1009.0 |
| 20260506190007 | 16 | 0 | 0.0 | 0.0 | 0.00 | 0.71 | 0.71 | 87 | 1008.9 |
| 20260506184502 | 16 | 0 | 0.0 | 0.0 | 0.00 | 0.71 | 0.71 | 86 | 1008.9 |
| 20260506183006 | 16 | 0 | 0.0 | 0.0 | 0.00 | 0.71 | 0.71 | 85 | 1008.7 |
| 20260506181503 | 16 | 0 | 0.0 | 0.0 | 0.00 | 0.71 | 0.71 | 85 | 1008.7 |
| 20260506173006 | 17 | 45 | 1.6 | 4.8 | 0.00 | 0.71 | 0.71 | 82 | 1008.3 |
| 20260506171502 | 18 | 23 | 1.6 | 6.4 | 0.00 | 0.71 | 0.71 | 83 | 1008.4 |
| 20260506170005 | 18 | 0 | 0.0 | 0.0 | 0.00 | 0.71 | 0.71 | 84 | 1008.2 |
| 20260506164504 | 18 | 112 | 3.2 | 6.4 | 0.00 | 0.71 | 0.71 | 83 | 1008.2 |
| 20260506163006 | 18 | 117 | 4.8 | 8.0 | 0.00 | 0.71 | 0.71 | 81 | 1008.0 |
| 20260506161503 | 20 | 0 | 0.0 | 0.0 | 0.00 | 0.71 | 0.71 | 77 | 1008.2 |
| 20260506160005 | 20 | 0 | 0.0 | 0.0 | 0.00 | 0.71 | 0.71 | 77 | 1008.3 |
| 20260506154504 | 20 | 94 | 6.4 | 11.3 | 0.00 | 0.71 | 0.71 | 79 | 1008.1 |
| 20260506153005 | 21 | 116 | 4.8 | 9.7 | 0.00 | 0.71 | 0.71 | 79 | 1008.1 |
| 20260506151503 | 20 | 93 | 3.2 | 9.7 | 0.00 | 0.71 | 0.71 | 79 | 1008.1 |
| 20260506150007 | 20 | 112 | 3.2 | 6.4 | 0.00 | 0.71 | 0.71 | 77 | 1008.2 |
| 20260506144503 | 21 | 0 | 0.0 | 0.0 | 0.00 | 0.71 | 0.71 | 74 | 1008.1 |
| 20260506143005 | 21 | 0 | 0.0 | 0.0 | 0.00 | 0.71 | 0.71 | 74 | 1008.2 |
| 20260506141503 | 21 | 183 | 3.2 | 8.0 | 0.00 | 0.71 | 0.71 | 78 | 1008.3 |
| 20260506140006 | 21 | 90 | 0.0 | 3.2 | 0.00 | 0.71 | 0.71 | 82 | 1008.5 |
| 20260506134504 | 19 | 0 | 0.0 | 0.0 | 0.00 | 0.71 | 0.71 | 83 | 1008.8 |
| 20260506133006 | 18 | 112 | 0.0 | 3.2 | 0.00 | 0.71 | 0.71 | 84 | 1008.7 |
| 20260506131503 | 19 | 0 | 0.0 | 0.0 | 0.00 | 0.71 | 0.71 | 83 | 1008.9 |
| 20260506130006 | 18 | 0 | 0.0 | 0.0 | 0.13 | 0.71 | 0.71 | 87 | 1008.9 |
| 20260506124503 | 18 | 0 | 0.0 | 0.0 | 0.53 | 0.71 | 0.71 | 88 | 1009.0 |
| 20260506123006 | 17 | 0 | 0.0 | 0.0 | 0.53 | 0.71 | 0.71 | 89 | 1009.0 |
| 20260506121503 | 16 | 0 | 0.0 | 0.0 | 0.53 | 0.71 | 0.71 | 89 | 1009.0 |
| 20260506120006 | 16 | 111 | 4.8 | 9.7 | 0.41 | 0.61 | 0.58 | 88 | 1009.0 |
| 20260506114503 | 17 | 66 | 1.6 | 6.4 | 0.00 | 0.18 | 0.18 | 86 | 1009.1 |
| 20260506113006 | 18 | 91 | 4.8 | 9.7 | 0.00 | 0.18 | 0.18 | 84 | 1009.3 |
| 20260506111503 | 17 | 120 | 8.0 | 12.9 | 0.00 | 0.18 | 0.18 | 85 | 1009.6 |
| 20260506110005 | 17 | 115 | 4.8 | 8.0 | 0.00 | 0.18 | 0.18 | 84 | 1009.6 |
| 20260506104502 | 18 | 128 | 9.7 | 14.5 | 0.05 | 0.18 | 0.18 | 84 | 1009.7 |
| 20260506103005 | 18 | 108 | 8.0 | 9.7 | 0.05 | 0.18 | 0.18 | 87 | 1009.8 |
| 20260506101503 | 18 | 112 | 8.0 | 8.0 | 0.05 | 0.18 | 0.18 | 88 | 1009.9 |
| 20260506100005 | 17 | 112 | 6.4 | 6.4 | 0.05 | 0.18 | 0.18 | 88 | 1010.0 |
| 20260506094502 | 16 | 80 | 6.4 | 8.0 | 0.00 | 0.18 | 0.13 | 88 | 1010.0 |
| 20260506093006 | 17 | 102 | 11.3 | 14.5 | 0.00 | 0.18 | 0.13 | 88 | 1010.3 |
| 20260506091503 | 16 | 111 | 4.8 | 4.8 | 0.00 | 0.25 | 0.13 | 90 | 1010.2 |
| 20260506090004 | 15 | 112 | 4.8 | 4.8 | 0.00 | 0.25 | 0.13 | 89 | 1010.1 |
| 20260506084503 | 15 | 124 | 4.8 | 6.4 | 0.00 | 0.25 | 0.13 | 89 | 1010.3 |
| 20260506083005 | 16 | 124 | 8.0 | 9.7 | 0.00 | 0.25 | 0.13 | 89 | 1010.2 |
| 20260506081502 | 16 | 101 | 3.2 | 4.8 | 0.00 | 0.25 | 0.13 | 89 | 1010.0 |
| 20260506073005 | 16 | 112 | 6.4 | 6.4 | 0.00 | 0.36 | 0.13 | 91 | 1010.1 |
| 20260506071503 | 15 | 0 | 0.0 | 0.0 | 0.00 | 0.36 | 0.13 | 91 | 1009.9 |
| 20260505221503 | 11 | 0 | 0.0 | 0.0 | 0.00 | 0.25 | 0.00 | 90 | 1011.9 |
| 20260505220006 | 11 | 0 | 0.0 | 0.0 | 0.00 | 0.25 | 0.00 | 90 | 1012.0 |
| 20260505214504 | 12 | 0 | 0.0 | 0.0 | 0.00 | 0.25 | 0.23 | 90 | 1012.1 |
| 20260505213006 | 12 | 0 | 0.0 | 0.0 | 0.00 | 0.25 | 0.23 | 90 | 1012.3 |
| 20260505211504 | 12 | 0 | 0.0 | 0.0 | 0.00 | 0.25 | 0.23 | 90 | 1012.4 |
| 20260505210006 | 12 | 0 | 0.0 | 0.0 | 0.00 | 0.25 | 0.23 | 90 | 1012.5 |